This demonstration page uses our WeatherBlox Daily Observations layout. Learn more.

Left ArrowRight Arrow

38.20091, -84.87328

Hourly Observations for September 9, 2022

Temp ( °F °C ) Dew Point ( °F °C ) Humidity (%) Winds ( mph kmh ) Pressure ( in mb ) Visibility ( mi km ) Precip ( " mm )
12:53 am 00:53 Clear 61 16.1 59 15 93 93 Calm 29.91 1013 10 16 0.00 0.00
1:53 am 01:53 Clear 61 16.1 59 15 93 93 Calm 29.92 1013 10 16 0.00 0.00
2:53 am 02:53 Clear 59 15 57 13.9 93 93 Calm 29.91 1013 10 16 0.00 0.00
3:53 am 03:53 Clear 59 15 57 13.9 93 93 Calm 29.91 1013 10 16 0.00 0.00
4:53 am 04:53 Clear 59 15 57 13.9 93 93 Calm 29.91 1013 10 16 0.00 0.00
5:53 am 05:53 Clear 57 13.9 56 13.3 96 96 Calm 29.91 1013 10 16 0.00 0.00
6:53 am 06:53 Clear 58 14.4 56 13.3 93 93 Calm 29.91 1013 10 16 0.00 0.00
7:53 am 07:53 Sunny 59 15 57 13.9 93 93 Calm 29.93 1014 10 16 0.00 0.00
8:53 am 08:53 Sunny 66 18.9 61 16.1 84 84 E 6 9 29.94 1014 10 16 0.00 0.00
9:53 am 09:53 Mostly Sunny 71 21.7 64 17.8 79 79 E 6 9 29.94 1014 10 16 0.00 0.00
10:53 am 10:53 Sunny 75 23.9 65 18.3 71 71 E 5 7 29.95 1014 10 16 0.00 0.00
11:53 am 11:53 Sunny 80 26.7 66 18.9 62 62 VRB 3 6 29.96 1014 10 16 0.00 0.00
12:53 pm 12:53 Sunny 82 27.8 66 18.9 58 58 VRB 3 6 29.94 1014 10 16 0.00 0.00
1:53 pm 13:53 Mostly Cloudy 83 28.3 65 18.3 55 55 VRB 3 6 29.93 1014 10 16 0.00 0.00
2:53 pm 14:53 Mostly Cloudy 83 28.3 64 17.8 53 53 E 6 9 29.93 1013 10 16 0.00 0.00
3:53 pm 15:53 Mostly Cloudy 86 30 63 17.2 46 46 VRB 3 6 29.91 1013 10 16 0.00 0.00
4:53 pm 16:53 Mostly Sunny 84 28.9 63 17.2 49 49 ESE 5 7 29.91 1013 10 16 0.00 0.00
5:53 pm 17:53 Mostly Sunny 85 29.4 63 17.2 48 48 SE 7 11 29.90 1013 10 16 0.00 0.00
6:53 pm 18:53 Mostly Cloudy 84 28.9 65 18.3 53 53 E 7 11 29.91 1013 10 16 0.00 0.00
7:53 pm 19:53 Mostly Sunny 79 26.1 65 18.3 62 62 E 5 7 29.92 1013 10 16 0.00 0.00
8:53 pm 20:53 Clear 73 22.8 67 19.4 81 81 Calm 29.94 1014 10 16 0.00 0.00
9:53 pm 21:53 Clear 70 21.1 66 18.9 87 87 Calm 29.96 1015 10 16 0.00 0.00
10:53 pm 22:53 Clear 69 20.6 66 18.9 90 90 Calm 29.97 1015 10 16 0.00 0.00
11:53 pm 23:53 Clear 68 20 65 18.3 90 90 Calm 29.97 1015 10 16 0.00 0.00

Powered by AerisWeather